Notices

What's New in latest Release from April 7th, 2021:

- Updated Glossary, including Speed of Maximum Gust, and Total Hourly Precipitation

- Updated national and regional climate services offices contacts and prices information

- Addition of station inventory lists for 1981-2010, 1971-2000, and 1961-1990 Normals.

If you haven't already, please take our survey and provide feedback about our website: https://eccc.sondage-survey.ca/f/LanguageSelection.aspx?s=442ca660-fcf1-47c0-95a9-59707d6fd709

Hourly Data Report for September 15, 2003

TORONTO CITY
ONTARIO

43°40'00.000" N
79°24'00.000" W
112.50 m
6158355
71508
XTO

Download Data

Hourly Data (September 2003)
Hourly Data Report for September 15, 2003
TIME
LST
Temp Definition
°C
Dew Point Definition
°C
Rel Hum Definition
%
Precip. Amount Definition
mm

Wind Dir Definition
10's deg

Wind Spd Definition
km/h
Visibility Definition
km
Stn Press Definition
kPa
Hmdx Definition


Wind Chill Definition


Weather Definition


00:00 19.3 18.7 96   LegendMM LegendMM LegendMM 100.20     LegendNANA
01:00 19.7 19.3 98   LegendMM LegendMM LegendMM 100.14     LegendNANA
02:00 20.3 19.9 98   LegendMM LegendMM LegendMM 100.13 28   LegendNANA
03:00 20.8 20.1 96   LegendMM LegendMM LegendMM 100.09 28   LegendNANA
04:00 20.3 19.6 96   LegendMM LegendMM LegendMM 100.02 28   LegendNANA
05:00 20.7 20.0 96   LegendMM LegendMM LegendMM 100.02 28   LegendNANA
06:00 20.8 20.0 95   LegendMM LegendMM LegendMM 100.01 28   LegendNANA
07:00 21.1 20.0 93   LegendMM LegendMM LegendMM 99.99 29   LegendNANA
08:00 21.4 20.0 92   LegendMM LegendMM LegendMM 100.01 29   LegendNANA
09:00 21.7 19.6 88   LegendMM LegendMM LegendMM 100.00 29   LegendNANA
10:00 22.5 20.1 86   LegendMM LegendMM LegendMM 99.98 30   LegendNANA
11:00 21.4 19.8 91   LegendMM LegendMM LegendMM 99.97 29   LegendNANA
12:00 20.4 18.3 88   LegendMM LegendMM LegendMM 99.95 27   LegendNANA
13:00 19.5 18.8 96   LegendMM LegendMM LegendMM 99.94     LegendNANA
14:00 19.5 19.0 97   LegendMM LegendMM LegendMM 99.92     LegendNANA
15:00 19.5 18.8 96   LegendMM LegendMM LegendMM 99.90     LegendNANA
16:00 17.9 16.5 92   LegendMM LegendMM LegendMM 99.96     LegendNANA
17:00 17.3 16.2 93   LegendMM LegendMM LegendMM 99.99     LegendNANA
18:00 17.1 16.2 94   LegendMM LegendMM LegendMM 100.04     LegendNANA
19:00 16.8 15.9 94   LegendMM LegendMM LegendMM 100.12     LegendNANA
20:00 16.4 15.7 96   LegendMM LegendMM LegendMM 100.21     LegendNANA
21:00 16.1 15.6 97   LegendMM LegendMM LegendMM 100.24     LegendNANA
22:00
23:00 15.3 12.9 86   LegendMM LegendMM LegendMM 100.18     LegendNANA

Notes on Data Quality.

Legend

  • E = Estimated
  • M = Missing
  • NA = Not Available*
  • [empty] = Indicates an unobserved value
Date modified: